Time,TemperatureF,DewpointF,PressureIn,WindDirection,WindDirectionDegrees,WindSpeedMPH,WindSpeedGustMPH,Humidity,HourlyPrecipIn,Conditions,Clouds,dailyrainin,SoftwareType,DateUTC
2014-01-02 00:00:00,11.5,6.8,30.44,North,360,6.0,6.0,81,0.00,,,0.00,Wunderground v.1.15,2014-01-02 06:00:00,
2014-01-02 00:10:00,11.3,6.6,30.44,NNW,347,5.0,8.0,81,0.00,,,0.00,Wunderground v.1.15,2014-01-02 06:10:00,
2014-01-02 00:35:00,10.8,5.8,30.45,NNW,336,5.0,5.0,80,0.00,,,0.00,Wunderground v.1.15,2014-01-02 06:35:00,
2014-01-02 00:45:00,10.6,5.9,30.45,NW,304,4.0,4.0,81,0.00,,,0.00,Wunderground v.1.15,2014-01-02 06:45:00,
2014-01-02 00:55:00,10.5,5.8,30.45,NW,325,5.0,7.0,81,0.00,,,0.00,Wunderground v.1.15,2014-01-02 06:55:00,
2014-01-02 01:05:00,10.3,5.6,30.45,North,355,4.0,5.0,81,0.00,,,0.00,Wunderground v.1.15,2014-01-02 07:05:00,
2014-01-02 01:10:00,10.1,5.4,30.46,NNW,333,4.0,4.0,81,0.00,,,0.00,Wunderground v.1.15,2014-01-02 07:10:00,
2014-01-02 01:15:00,10.1,5.4,30.46,NNW,341,4.0,4.0,81,0.00,,,0.00,Wunderground v.1.15,2014-01-02 07:15:00,
2014-01-02 01:25:00,9.9,5.2,30.47,NW,317,4.0,5.0,81,0.00,,,0.00,Wunderground v.1.15,2014-01-02 07:25:00,
2014-01-02 01:30:00,9.9,5.2,30.47,North,355,4.0,4.0,81,0.00,,,0.00,Wunderground v.1.15,2014-01-02 07:30:00,
2014-01-02 01:35:00,9.8,5.1,30.46,NNW,336,5.0,5.0,81,0.00,,,0.00,Wunderground v.1.15,2014-01-02 07:35:00,
2014-01-02 01:40:00,9.7,5.0,30.46,North,360,9.0,9.0,81,0.00,,,0.00,Wunderground v.1.15,2014-01-02 07:40:00,
2014-01-02 01:45:00,9.6,4.9,30.46,NNW,337,4.0,9.0,81,0.00,,,0.00,Wunderground v.1.15,2014-01-02 07:45:00,
2014-01-02 01:55:00,9.5,4.6,30.47,North,355,4.0,4.0,80,0.00,,,0.00,Wunderground v.1.15,2014-01-02 07:55:00,
2014-01-02 02:05:00,9.5,4.6,30.47,North,355,4.0,5.0,80,0.00,,,0.00,Wunderground v.1.15,2014-01-02 08:05:00,
2014-01-02 02:15:00,9.2,4.6,30.48,NW,323,3.0,7.0,81,0.00,,,0.00,Wunderground v.1.15,2014-01-02 08:15:00,
2014-01-02 02:25:00,9.0,4.1,30.48,North,349,3.0,4.0,80,0.00,,,0.00,Wunderground v.1.15,2014-01-02 08:25:00,
2014-01-02 02:35:00,8.8,4.2,30.48,North,355,3.0,6.0,81,0.00,,,0.00,Wunderground v.1.15,2014-01-02 08:35:00,
2014-01-02 02:45:00,8.6,4.0,30.48,NNW,341,3.0,3.0,81,0.00,,,0.00,Wunderground v.1.15,2014-01-02 08:45:00,
2014-01-02 02:55:00,8.5,3.9,30.48,NNW,342,3.0,4.0,81,0.00,,,0.00,Wunderground v.1.15,2014-01-02 08:55:00,
2014-01-02 03:05:00,8.1,3.5,30.48,NNW,342,2.0,2.0,81,0.00,,,0.00,Wunderground v.1.15,2014-01-02 09:05:00,
2014-01-02 03:10:00,7.9,3.3,30.48,NNW,342,1.0,1.0,81,0.00,,,0.00,Wunderground v.1.15,2014-01-02 09:10:00,
2014-01-02 03:20:00,7.6,3.0,30.49,NNW,342,1.0,1.0,81,0.00,,,0.00,Wunderground v.1.15,2014-01-02 09:20:00,
2014-01-02 03:30:00,7.2,2.6,30.49,NNW,342,0.0,0.0,81,0.00,,,0.00,Wunderground v.1.15,2014-01-02 09:30:00,
2014-01-02 03:35:00,6.9,2.3,30.49,NNW,342,0.0,0.0,81,0.00,,,0.00,Wunderground v.1.15,2014-01-02 09:35:00,
2014-01-02 03:45:00,6.5,2.2,30.49,NNW,342,0.0,0.0,82,0.00,,,0.00,Wunderground v.1.15,2014-01-02 09:45:00,
2014-01-02 03:55:00,6.5,2.2,30.49,NNW,342,1.0,1.0,82,0.00,,,0.00,Wunderground v.1.15,2014-01-02 09:55:00,
2014-01-02 04:05:00,6.1,1.8,30.50,NNW,342,0.0,1.0,82,0.00,,,0.00,Wunderground v.1.15,2014-01-02 10:05:00,
2014-01-02 04:15:00,5.2,0.9,30.50,NNW,342,0.0,0.0,82,0.00,,,0.00,Wunderground v.1.15,2014-01-02 10:15:00,
2014-01-02 04:25:00,4.4,0.1,30.50,NNW,342,0.0,0.0,82,0.00,,,0.00,Wunderground v.1.15,2014-01-02 10:25:00,
2014-01-02 04:35:00,4.1,0.1,30.49,NNW,342,0.0,0.0,83,0.00,,,0.00,Wunderground v.1.15,2014-01-02 10:35:00,
2014-01-02 04:40:00,4.1,0.1,30.49,NNW,342,0.0,0.0,83,0.00,,,0.00,Wunderground v.1.15,2014-01-02 10:40:00,
2014-01-02 04:50:00,4.2,0.4,30.49,NNW,342,0.0,0.0,84,0.00,,,0.00,Wunderground v.1.15,2014-01-02 10:50:00,
2014-01-02 05:00:00,4.2,0.4,30.49,NNW,342,0.0,0.0,84,0.00,,,0.00,Wunderground v.1.15,2014-01-02 11:00:00,
2014-01-02 05:05:00,4.0,0.0,30.49,NNW,342,0.0,0.0,83,0.00,,,0.00,Wunderground v.1.15,2014-01-02 11:05:00,
2014-01-02 05:15:00,3.8,0.0,30.49,NNW,342,1.0,1.0,84,0.00,,,0.00,Wunderground v.1.15,2014-01-02 11:15:00,
2014-01-02 05:25:00,3.6,-0.2,30.49,NNW,342,0.0,1.0,84,0.00,,,0.00,Wunderground v.1.15,2014-01-02 11:25:00,
2014-01-02 05:30:00,3.4,-0.3,30.48,NNW,342,0.0,0.0,84,0.00,,,0.00,Wunderground v.1.15,2014-01-02 11:30:00,
2014-01-02 05:40:00,3.1,-0.6,30.48,NNW,342,0.0,0.0,84,0.00,,,0.00,Wunderground v.1.15,2014-01-02 11:40:00,
2014-01-02 05:50:00,2.7,-1.0,30.48,NNW,342,0.0,0.0,84,0.00,,,0.00,Wunderground v.1.15,2014-01-02 11:50:00,
2014-01-02 05:55:00,2.5,-1.2,30.49,NNW,342,0.0,0.0,84,0.00,,,0.00,Wunderground v.1.15,2014-01-02 11:55:00,
2014-01-02 06:00:00,2.5,-1.0,30.49,NNW,342,0.0,0.0,85,0.00,,,0.00,Wunderground v.1.15,2014-01-02 12:00:00,
2014-01-02 06:10:00,2.5,-1.0,30.49,NNW,342,0.0,0.0,85,0.00,,,0.00,Wunderground v.1.15,2014-01-02 12:10:00,
2014-01-02 06:15:00,2.4,-1.1,30.48,NNW,342,0.0,0.0,85,0.00,,,0.00,Wunderground v.1.15,2014-01-02 12:15:00,
2014-01-02 06:20:00,2.4,-1.1,30.48,NNW,342,0.0,0.0,85,0.00,,,0.00,Wunderground v.1.15,2014-01-02 12:20:00,
2014-01-02 06:30:00,2.7,-0.8,30.48,NNW,342,0.0,0.0,85,0.00,,,0.00,Wunderground v.1.15,2014-01-02 12:30:00,
2014-01-02 06:35:00,2.8,-0.7,30.49,NNW,342,0.0,3.0,85,0.00,,,0.00,Wunderground v.1.15,2014-01-02 12:35:00,
2014-01-02 06:45:00,2.7,-0.8,30.50,NNW,333,1.0,2.0,85,0.00,,,0.00,Wunderground v.1.15,2014-01-02 12:45:00,
2014-01-02 06:50:00,2.8,-0.7,30.50,NNW,332,1.0,2.0,85,0.00,,,0.00,Wunderground v.1.15,2014-01-02 12:50:00,
2014-01-02 07:00:00,3.3,0.1,30.49,NNW,332,1.0,1.0,86,0.00,,,0.00,Wunderground v.1.15,2014-01-02 13:00:00,
2014-01-02 07:05:00,3.6,0.4,30.49,NNW,332,1.0,1.0,86,0.00,,,0.00,Wunderground v.1.15,2014-01-02 13:05:00,
2014-01-02 07:15:00,4.5,1.2,30.49,NNW,332,0.0,1.0,86,0.00,,,0.00,Wunderground v.1.15,2014-01-02 13:15:00,
2014-01-02 07:25:00,4.2,0.7,30.49,NNW,332,0.0,0.0,85,0.00,,,0.00,Wunderground v.1.15,2014-01-02 13:25:00,
2014-01-02 07:35:00,3.8,0.3,30.50,NNW,332,0.0,0.0,85,0.00,,,0.00,Wunderground v.1.15,2014-01-02 13:35:00,
2014-01-02 07:45:00,3.5,0.0,30.50,NNW,332,0.0,0.0,85,0.00,,,0.00,Wunderground v.1.15,2014-01-02 13:45:00,
2014-01-02 07:50:00,3.4,-0.1,30.50,NNW,332,0.0,0.0,85,0.00,,,0.00,Wunderground v.1.15,2014-01-02 13:50:00,
2014-01-02 08:00:00,3.1,-0.4,30.51,NNW,332,0.0,0.0,85,0.00,,,0.00,Wunderground v.1.15,2014-01-02 14:00:00,
2014-01-02 08:05:00,3.1,-0.4,30.51,NNW,332,0.0,0.0,85,0.00,,,0.00,Wunderground v.1.15,2014-01-02 14:05:00,
2014-01-02 08:15:00,3.2,-0.3,30.51,NNW,332,0.0,0.0,85,0.00,,,0.00,Wunderground v.1.15,2014-01-02 14:15:00,
2014-01-02 08:20:00,3.6,0.4,30.51,NNW,332,0.0,0.0,86,0.00,,,0.00,Wunderground v.1.15,2014-01-02 14:20:00,
2014-01-02 08:30:00,4.9,1.9,30.51,NNW,332,0.0,0.0,87,0.00,,,0.00,Wunderground v.1.15,2014-01-02 14:30:00,
2014-01-02 08:35:00,5.9,2.9,30.51,NNW,332,0.0,0.0,87,0.00,,,0.00,Wunderground v.1.15,2014-01-02 14:35:00,
2014-01-02 08:45:00,7.1,3.8,30.51,NNW,332,0.0,0.0,86,0.00,,,0.00,Wunderground v.1.15,2014-01-02 14:45:00,
2014-01-02 08:55:00,8.1,4.8,30.52,NNW,332,0.0,0.0,86,0.00,,,0.00,Wunderground v.1.15,2014-01-02 14:55:00,
2014-01-02 09:05:00,9.6,6.3,30.53,NNW,332,1.0,2.0,86,0.00,,,0.00,Wunderground v.1.15,2014-01-02 15:05:00,
2014-01-02 09:10:00,10.6,7.2,30.53,NNW,332,1.0,1.0,86,0.00,,,0.00,Wunderground v.1.15,2014-01-02 15:10:00,
2014-01-02 09:20:00,12.1,8.5,30.53,NNW,332,1.0,1.0,85,0.00,,,0.00,Wunderground v.1.15,2014-01-02 15:20:00,
2014-01-02 09:30:00,13.4,9.2,30.53,NNW,332,1.0,1.0,83,0.00,,,0.00,Wunderground v.1.15,2014-01-02 15:30:00,
2014-01-02 09:40:00,14.4,9.9,30.52,NNW,332,2.0,2.0,82,0.00,,,0.00,Wunderground v.1.15,2014-01-02 15:40:00,
2014-01-02 09:45:00,15.0,10.2,30.52,NNW,332,2.0,2.0,81,0.00,,,0.00,Wunderground v.1.15,2014-01-02 15:45:00,
2014-01-02 09:50:00,15.6,10.8,30.53,NNW,332,1.0,1.0,81,0.00,,,0.00,Wunderground v.1.15,2014-01-02 15:50:00,
2014-01-02 10:00:00,17.0,11.9,30.53,NNW,332,1.0,1.0,80,0.00,,,0.00,Wunderground v.1.15,2014-01-02 16:00:00,
2014-01-02 10:05:00,17.6,12.2,30.54,NNW,332,1.0,2.0,79,0.00,,,0.00,Wunderground v.1.15,2014-01-02 16:05:00,
2014-01-02 10:15:00,18.2,12.5,30.54,NNW,332,1.0,3.0,78,0.00,,,0.00,Wunderground v.1.15,2014-01-02 16:15:00,
2014-01-02 10:20:00,18.8,13.1,30.55,NNW,332,2.0,3.0,78,0.00,,,0.00,Wunderground v.1.15,2014-01-02 16:20:00,
2014-01-02 10:30:00,19.3,13.0,30.56,NNW,332,2.0,4.0,76,0.00,,,0.00,Wunderground v.1.15,2014-01-02 16:30:00,
2014-01-02 10:35:00,19.2,13.2,30.56,NNW,331,2.0,4.0,77,0.00,,,0.00,Wunderground v.1.15,2014-01-02 16:35:00,
2014-01-02 10:45:00,20.1,14.0,30.55,NNW,331,1.0,2.0,77,0.00,,,0.00,Wunderground v.1.15,2014-01-02 16:45:00,
2014-01-02 10:55:00,20.8,14.4,30.55,NNW,331,2.0,2.0,76,0.00,,,0.00,Wunderground v.1.15,2014-01-02 16:55:00,
2014-01-02 11:05:00,21.7,14.7,30.55,NNW,331,1.0,2.0,74,0.00,,,0.00,Wunderground v.1.15,2014-01-02 17:05:00,
2014-01-02 11:15:00,22.6,14.0,30.55,NNW,331,1.0,2.0,69,0.00,,,0.00,Wunderground v.1.15,2014-01-02 17:15:00,
2014-01-02 11:20:00,23.1,14.4,30.55,NNW,331,1.0,1.0,69,0.00,,,0.00,Wunderground v.1.15,2014-01-02 17:20:00,
2014-01-02 11:30:00,23.6,14.9,30.54,NNW,331,0.0,2.0,69,0.00,,,0.00,Wunderground v.1.15,2014-01-02 17:30:00,
2014-01-02 11:40:00,24.1,15.4,30.54,NNW,331,1.0,1.0,69,0.00,,,0.00,Wunderground v.1.15,2014-01-02 17:40:00,
2014-01-02 11:50:00,24.7,15.6,30.53,NE,49,1.0,4.0,68,0.00,,,0.00,Wunderground v.1.15,2014-01-02 17:50:00,
2014-01-02 11:55:00,24.9,15.8,30.52,NE,52,2.0,4.0,68,0.00,,,0.00,Wunderground v.1.15,2014-01-02 17:55:00,
2014-01-02 12:00:00,25.1,16.0,30.52,ENE,68,2.0,4.0,68,0.00,,,0.00,Wunderground v.1.15,2014-01-02 18:00:00,
2014-01-02 12:10:00,25.1,16.4,30.51,East,99,3.0,3.0,69,0.00,,,0.00,Wunderground v.1.15,2014-01-02 18:10:00,
2014-01-02 12:15:00,25.4,17.0,30.51,East,99,2.0,3.0,70,0.00,,,0.00,Wunderground v.1.15,2014-01-02 18:15:00,
2014-01-02 12:20:00,25.6,16.5,30.51,WSW,257,2.0,4.0,68,0.00,,,0.00,Wunderground v.1.15,2014-01-02 18:20:00,
2014-01-02 12:30:00,25.8,17.0,30.51,SSW,200,2.0,2.0,69,0.00,,,0.00,Wunderground v.1.15,2014-01-02 18:30:00,
2014-01-02 12:35:00,25.8,17.0,30.51,SSE,165,2.0,3.0,69,0.00,,,0.00,Wunderground v.1.15,2014-01-02 18:35:00,
2014-01-02 12:45:00,25.8,16.7,30.50,SSE,165,3.0,3.0,68,0.00,,,0.00,Wunderground v.1.15,2014-01-02 18:45:00,
2014-01-02 12:50:00,25.4,16.3,30.50,SE,142,3.0,3.0,68,0.00,,,0.00,Wunderground v.1.15,2014-01-02 18:50:00,
2014-01-02 13:00:00,25.3,16.5,30.50,SE,144,3.0,5.0,69,0.00,,,0.00,Wunderground v.1.15,2014-01-02 19:00:00,
2014-01-02 13:10:00,25.3,16.9,30.49,SE,144,4.0,5.0,70,0.00,,,0.00,Wunderground v.1.15,2014-01-02 19:10:00,
2014-01-02 13:20:00,25.2,16.8,30.49,SE,133,4.0,4.0,70,0.00,,,0.00,Wunderground v.1.15,2014-01-02 19:20:00,
2014-01-02 13:25:00,25.3,16.9,30.49,SE,140,4.0,5.0,70,0.00,,,0.00,Wunderground v.1.15,2014-01-02 19:25:00,
2014-01-02 13:35:00,25.6,17.2,30.48,SE,130,4.0,6.0,70,0.00,,,0.00,Wunderground v.1.15,2014-01-02 19:35:00,
2014-01-02 13:45:00,25.6,17.2,30.48,SSE,154,5.0,6.0,70,0.00,,,0.00,Wunderground v.1.15,2014-01-02 19:45:00,
2014-01-02 13:55:00,26.2,17.7,30.47,SE,139,4.0,4.0,70,0.00,,,0.00,Wunderground v.1.15,2014-01-02 19:55:00,
2014-01-02 14:05:00,27.1,18.3,30.47,SE,140,3.0,4.0,69,0.00,,,0.00,Wunderground v.1.15,2014-01-02 20:05:00,
2014-01-02 14:10:00,27.5,18.3,30.47,SSW,194,3.0,4.0,68,0.00,,,0.00,Wunderground v.1.15,2014-01-02 20:10:00,
2014-01-02 14:20:00,28.0,19.1,30.47,South,190,3.0,4.0,69,0.00,,,0.00,Wunderground v.1.15,2014-01-02 20:20:00,
2014-01-02 14:30:00,28.2,19.0,30.47,South,185,3.0,5.0,68,0.00,,,0.00,Wunderground v.1.15,2014-01-02 20:30:00,
2014-01-02 14:40:00,28.4,19.2,30.46,South,181,4.0,4.0,68,0.00,,,0.00,Wunderground v.1.15,2014-01-02 20:40:00,
2014-01-02 14:50:00,28.3,19.1,30.46,South,173,4.0,4.0,68,0.00,,,0.00,Wunderground v.1.15,2014-01-02 20:50:00,
2014-01-02 14:55:00,28.2,19.0,30.46,South,170,4.0,4.0,68,0.00,,,0.00,Wunderground v.1.15,2014-01-02 20:55:00,
2014-01-02 15:05:00,28.8,19.9,30.46,South,169,3.0,4.0,69,0.00,,,0.00,Wunderground v.1.15,2014-01-02 21:05:00,
2014-01-02 15:15:00,29.4,20.5,30.46,South,173,2.0,3.0,69,0.00,,,0.00,Wunderground v.1.15,2014-01-02 21:15:00,
2014-01-02 15:25:00,29.9,20.3,30.46,SW,217,3.0,3.0,67,0.00,,,0.00,Wunderground v.1.15,2014-01-02 21:25:00,
2014-01-02 15:35:00,30.3,21.0,30.46,SSW,204,3.0,4.0,68,0.00,,,0.00,Wunderground v.1.15,2014-01-02 21:35:00,
2014-01-02 15:45:00,30.4,20.7,30.46,SSW,206,3.0,4.0,67,0.00,,,0.00,Wunderground v.1.15,2014-01-02 21:45:00,
2014-01-02 15:50:00,30.3,20.6,30.46,SSW,197,3.0,4.0,67,0.00,,,0.00,Wunderground v.1.15,2014-01-02 21:50:00,
2014-01-02 16:00:00,30.1,20.8,30.46,South,184,3.0,3.0,68,0.00,,,0.00,Wunderground v.1.15,2014-01-02 22:00:00,
2014-01-02 16:05:00,30.3,21.0,30.46,South,187,2.0,3.0,68,0.00,,,0.00,Wunderground v.1.15,2014-01-02 22:05:00,
2014-01-02 16:15:00,30.5,21.2,30.47,South,183,2.0,3.0,68,0.00,,,0.00,Wunderground v.1.15,2014-01-02 22:15:00,
2014-01-02 16:25:00,30.4,21.1,30.47,South,183,2.0,2.0,68,0.00,,,0.00,Wunderground v.1.15,2014-01-02 22:25:00,
2014-01-02 16:30:00,30.4,21.1,30.47,South,183,2.0,2.0,68,0.00,,,0.00,Wunderground v.1.15,2014-01-02 22:30:00,
2014-01-02 16:40:00,29.8,20.9,30.47,South,183,1.0,1.0,69,0.00,,,0.00,Wunderground v.1.15,2014-01-02 22:40:00,
2014-01-02 16:50:00,29.2,20.6,30.47,South,183,2.0,3.0,70,0.00,,,0.00,Wunderground v.1.15,2014-01-02 22:50:00,
2014-01-02 17:00:00,28.9,20.7,30.47,South,183,2.0,2.0,71,0.00,,,0.00,Wunderground v.1.15,2014-01-02 23:00:00,
2014-01-02 17:05:00,28.7,20.5,30.47,South,183,1.0,2.0,71,0.00,,,0.00,Wunderground v.1.15,2014-01-02 23:05:00,
2014-01-02 17:15:00,28.1,20.2,30.47,South,182,1.0,2.0,72,0.00,,,0.00,Wunderground v.1.15,2014-01-02 23:15:00,
2014-01-02 17:25:00,27.4,19.9,30.47,South,183,0.0,0.0,73,0.00,,,0.00,Wunderground v.1.15,2014-01-02 23:25:00,
2014-01-02 17:30:00,26.8,19.6,30.47,South,183,0.0,0.0,74,0.00,,,0.00,Wunderground v.1.15,2014-01-02 23:30:00,
2014-01-02 17:40:00,25.6,19.1,30.47,South,183,0.0,0.0,76,0.00,,,0.00,Wunderground v.1.15,2014-01-02 23:40:00,
2014-01-02 17:50:00,24.6,18.1,30.47,South,183,0.0,0.0,76,0.00,,,0.00,Wunderground v.1.15,2014-01-02 23:50:00,
2014-01-02 17:55:00,24.0,17.5,30.47,South,183,0.0,0.0,76,0.00,,,0.00,Wunderground v.1.15,2014-01-02 23:55:00,
2014-01-02 18:00:00,23.6,17.4,30.47,South,183,0.0,0.0,77,0.00,,,0.00,Wunderground v.1.15,2014-01-03 00:00:00,
2014-01-02 18:10:00,22.8,17.3,30.47,South,183,0.0,0.0,79,0.00,,,0.00,Wunderground v.1.15,2014-01-03 00:10:00,
2014-01-02 18:15:00,22.5,17.0,30.47,South,183,0.0,0.0,79,0.00,,,0.00,Wunderground v.1.15,2014-01-03 00:15:00,
2014-01-02 18:20:00,22.1,16.9,30.47,South,183,0.0,0.0,80,0.00,,,0.00,Wunderground v.1.15,2014-01-03 00:20:00,
2014-01-02 18:30:00,21.6,17.0,30.47,South,183,0.0,0.0,82,0.00,,,0.00,Wunderground v.1.15,2014-01-03 00:30:00,
2014-01-02 18:40:00,21.3,16.7,30.47,South,183,0.0,0.0,82,0.00,,,0.00,Wunderground v.1.15,2014-01-03 00:40:00,
2014-01-02 18:50:00,21.2,17.1,30.47,South,183,0.0,0.0,84,0.00,,,0.00,Wunderground v.1.15,2014-01-03 00:50:00,
2014-01-02 18:55:00,21.3,17.2,30.48,South,183,0.0,0.0,84,0.00,,,0.00,Wunderground v.1.15,2014-01-03 00:55:00,
2014-01-02 19:05:00,21.5,17.4,30.48,South,183,0.0,0.0,84,0.00,,,0.00,Wunderground v.1.15,2014-01-03 01:05:00,
2014-01-02 19:15:00,21.5,17.4,30.48,South,183,0.0,0.0,84,0.00,,,0.00,Wunderground v.1.15,2014-01-03 01:15:00,
2014-01-02 19:25:00,21.7,17.3,30.48,South,183,0.0,0.0,83,0.00,,,0.00,Wunderground v.1.15,2014-01-03 01:25:00,
2014-01-02 19:30:00,21.8,17.4,30.48,South,183,0.0,0.0,83,0.00,,,0.00,Wunderground v.1.15,2014-01-03 01:30:00,
2014-01-02 19:40:00,21.9,17.5,30.48,South,183,0.0,1.0,83,0.00,,,0.00,Wunderground v.1.15,2014-01-03 01:40:00,
2014-01-02 19:50:00,21.7,17.1,30.47,South,183,0.0,0.0,82,0.00,,,0.00,Wunderground v.1.15,2014-01-03 01:50:00,
2014-01-02 20:00:00,21.6,17.2,30.47,South,183,1.0,3.0,83,0.00,,,0.00,Wunderground v.1.15,2014-01-03 02:00:00,
2014-01-02 20:05:00,21.7,17.1,30.47,South,183,1.0,3.0,82,0.00,,,0.00,Wunderground v.1.15,2014-01-03 02:05:00,
2014-01-02 20:15:00,21.8,17.2,30.47,South,183,1.0,1.0,82,0.00,,,0.00,Wunderground v.1.15,2014-01-03 02:15:00,
2014-01-02 20:25:00,21.9,17.2,30.47,South,173,2.0,2.0,82,0.00,,,0.00,Wunderground v.1.15,2014-01-03 02:25:00,
2014-01-02 20:30:00,22.0,17.3,30.48,South,173,2.0,2.0,82,0.00,,,0.00,Wunderground v.1.15,2014-01-03 02:30:00,
2014-01-02 20:40:00,22.0,17.1,30.48,South,173,2.0,3.0,81,0.00,,,0.00,Wunderground v.1.15,2014-01-03 02:40:00,
2014-01-02 20:50:00,21.7,16.8,30.48,South,173,2.0,2.0,81,0.00,,,0.00,Wunderground v.1.15,2014-01-03 02:50:00,
2014-01-02 21:00:00,21.3,16.4,30.48,South,173,1.0,1.0,81,0.00,,,0.00,Wunderground v.1.15,2014-01-03 03:00:00,
2014-01-02 21:10:00,20.8,16.2,30.48,South,173,1.0,3.0,82,0.00,,,0.00,Wunderground v.1.15,2014-01-03 03:10:00,
2014-01-02 21:15:00,20.6,16.0,30.48,South,173,1.0,3.0,82,0.00,,,0.00,Wunderground v.1.15,2014-01-03 03:15:00,
2014-01-02 21:20:00,20.6,16.0,30.48,South,173,1.0,2.0,82,0.00,,,0.00,Wunderground v.1.15,2014-01-03 03:20:00,
2014-01-02 21:30:00,20.4,15.8,30.48,South,173,1.0,1.0,82,0.00,,,0.00,Wunderground v.1.15,2014-01-03 03:30:00,
2014-01-02 21:35:00,20.3,16.0,30.48,South,173,1.0,2.0,83,0.00,,,0.00,Wunderground v.1.15,2014-01-03 03:35:00,
2014-01-02 21:45:00,20.1,15.8,30.48,South,173,2.0,2.0,83,0.00,,,0.00,Wunderground v.1.15,2014-01-03 03:45:00,
2014-01-02 21:55:00,20.0,15.4,30.48,South,172,3.0,3.0,82,0.00,,,0.00,Wunderground v.1.15,2014-01-03 03:55:00,
2014-01-02 22:00:00,19.9,15.3,30.48,South,172,3.0,3.0,82,0.00,,,0.00,Wunderground v.1.15,2014-01-03 04:00:00,
2014-01-02 22:05:00,19.8,15.2,30.48,SSE,167,3.0,3.0,82,0.00,,,0.00,Wunderground v.1.15,2014-01-03 04:05:00,
2014-01-02 22:15:00,19.5,14.9,30.48,SSE,165,3.0,3.0,82,0.00,,,0.00,Wunderground v.1.15,2014-01-03 04:15:00,
2014-01-02 22:20:00,19.4,14.8,30.48,SSE,164,3.0,5.0,82,0.00,,,0.00,Wunderground v.1.15,2014-01-03 04:20:00,
2014-01-02 22:30:00,19.2,14.6,30.48,SSE,163,3.0,5.0,82,0.00,,,0.00,Wunderground v.1.15,2014-01-03 04:30:00,
2014-01-02 22:35:00,19.1,14.5,30.48,SSE,159,3.0,5.0,82,0.00,,,0.00,Wunderground v.1.15,2014-01-03 04:35:00,
2014-01-02 22:40:00,18.9,14.3,30.47,SSE,157,3.0,4.0,82,0.00,,,0.00,Wunderground v.1.15,2014-01-03 04:40:00,
2014-01-02 22:50:00,18.7,14.1,30.47,SSE,148,3.0,3.0,82,0.00,,,0.00,Wunderground v.1.15,2014-01-03 04:50:00,
2014-01-02 23:00:00,18.5,13.9,30.47,SE,146,3.0,3.0,82,0.00,,,0.00,Wunderground v.1.15,2014-01-03 05:00:00,
2014-01-02 23:05:00,18.3,13.7,30.47,SE,146,4.0,4.0,82,0.00,,,0.00,Wunderground v.1.15,2014-01-03 05:05:00,
2014-01-02 23:10:00,18.2,13.9,30.46,SE,143,4.0,4.0,83,0.00,,,0.00,Wunderground v.1.15,2014-01-03 05:10:00,
2014-01-02 23:15:00,18.1,13.8,30.46,SE,142,3.0,5.0,83,0.00,,,0.00,Wunderground v.1.15,2014-01-03 05:15:00,
2014-01-02 23:25:00,18.2,13.9,30.46,SE,139,4.0,6.0,83,0.00,,,0.00,Wunderground v.1.15,2014-01-03 05:25:00,
2014-01-02 23:30:00,18.2,13.6,30.46,SE,140,4.0,6.0,82,0.00,,,0.00,Wunderground v.1.15,2014-01-03 05:30:00,
2014-01-02 23:35:00,18.3,13.7,30.45,SE,141,5.0,6.0,82,0.00,,,0.00,Wunderground v.1.15,2014-01-03 05:35:00,
2014-01-02 23:40:00,18.4,13.8,30.45,SE,145,5.0,6.0,82,0.00,,,0.00,Wunderground v.1.15,2014-01-03 05:40:00,
2014-01-02 23:50:00,18.5,13.9,30.45,SE,138,6.0,7.0,82,0.00,,,0.00,Wunderground v.1.15,2014-01-03 05:50:00,
2014-01-02 23:55:00,18.5,13.9,30.45,SE,136,6.0,7.0,82,0.00,,,0.00,Wunderground v.1.15,2014-01-03 05:55:00,